Location: Göttingen
(51.5413°N, 9.9158°E)
Time: 07:22:42
(UTC+02:00)

BEESAT - Pass Details

Date: 30 June 2022
Orbit: 700 x 706 km, 98.6° (Epoch: 07 August)

Event Time Altitude Azimuth Distance (km) Brightness Sun altitude
Rises 00:02:41 0° 1° (N) 3,106 ? -13.2°
Reaches altitude 10° 00:06:34 10° 329° (NNW) 2,183 ? -13.4°
Maximum altitude 00:08:03 11° 311° (NW) 2,089 ? -13.4°
Drops below altitude 10° 00:09:31 10° 293° (WNW) 2,181 ? -13.5°
Sets 00:13:24 0° 260° (W) 3,095 ? -13.7°
